Steamboat Springs, CO

10:56 AM MDT on April 23, 2017 (GMT -0600)
Steamboat Springs-Adams

Weather History for KSBS - September, 2013

Change the Weather History Date:

Monday, September 16, 2013

  Actual Average Record
Temperature  
Mean Temperature 58 °F -  
Max Temperature 72 °F 71 °F 86 °F (1990)
Min Temperature 45 °F 33 °F 16 °F (1944)
Degree Days  
Heating Degree Days 6    
Growing Degree Days 8 (Base 50)    
Moisture  
Dew Point 44 °F    
Average Humidity 68    
Maximum Humidity 97    
Minimum Humidity 23    
Precipitation  
Precipitation 0.00 in - - ()
Sea Level Pressure  
Sea Level Pressure 30.25 in    
Wind  
Wind Speed 1 mph (NW)    
Max Wind Speed 9 mph    
Max Gust Speed -    
Visibility 10 miles    
Events      
Averages and records for this station are not official NWS values.
T = Trace of Precipitation, MM = Missing Value Source: NWS Daily Summary

Daily Weather History Graph

Daily Weather History Graph

Search for Another Location

Airport or City:

Trip Planner

Search our weather history database for the weather conditions in past years. The results will help you decide how hot, cold, wet, or windy it might be!

Date:

Astronomy

Sep. 16, 2013 Rise Set
Actual Time 6:49 AM MDT 7:14 PM MDT
Civil Twilight 6:22 AM MDT 7:41 PM MDT
Nautical Twilight 5:49 AM MDT 8:13 PM MDT
Astronomical Twilight 5:16 AM MDT 8:46 PM MDT
Moon 5:25 PM MDT (9/16) 3:38 AM MDT (9/16)
Length of Visible Light 13h 19m
Length of Day
12h 24m
Waxing Gibbous, 90% of the Moon is Illuminated
Sep 16
Waxing Gibbous
Sep 19
Full
Sep 26
Last Quarter
Oct 4
New
Oct 11
First Quarter

Hourly Weather History & Observations

Time (MDT) Temp. Dew Point Humidity Pressure Visibility Wind Dir Wind Speed Gust Speed Precip Events Conditions
12:14 AM 50.4 °F 48.6 °F 94% 30.27 in 10.0 mi Calm Calm - N/A   Mostly Cloudy
12:34 AM 50.0 °F 47.3 °F 90% 30.27 in 10.0 mi Calm Calm - N/A   Scattered Clouds
12:54 AM 49.6 °F 47.7 °F 93% 30.26 in 10.0 mi Calm Calm - N/A   Clear
1:14 AM 49.1 °F 47.3 °F 93% 30.27 in 10.0 mi Calm Calm - N/A   Clear
1:34 AM 48.4 °F 47.3 °F 96% 30.27 in 10.0 mi Calm Calm - N/A   Clear
1:54 AM 47.7 °F 46.6 °F 96% 30.27 in 10.0 mi Calm Calm - N/A   Clear
2:14 AM 46.9 °F 45.5 °F 95% 30.27 in 10.0 mi Calm Calm - N/A   Clear
2:34 AM 46.8 °F 45.7 °F 96% 30.27 in 10.0 mi Calm Calm - N/A   Scattered Clouds
2:54 AM 45.7 °F 44.8 °F 97% 30.27 in 10.0 mi Calm Calm - N/A   Scattered Clouds
3:14 AM 46.4 °F 45.5 °F 97% 30.27 in 10.0 mi Calm Calm - N/A   Clear
3:34 AM 45.7 °F 44.4 °F 95% 30.27 in 10.0 mi Calm Calm - N/A   Clear
3:54 AM 46.0 °F 44.8 °F 95% 30.27 in 10.0 mi Calm Calm - N/A   Clear
4:14 AM 45.5 °F 43.9 °F 94% 30.27 in 10.0 mi Calm Calm - N/A   Scattered Clouds
4:34 AM 45.5 °F 44.2 °F 95% 30.27 in 10.0 mi Calm Calm - N/A   Scattered Clouds
4:54 AM 45.5 °F 44.2 °F 95% 30.27 in 10.0 mi Calm Calm - N/A   Mostly Cloudy
5:14 AM 45.7 °F 44.2 °F 95% 30.27 in 10.0 mi Calm Calm - N/A   Overcast
5:34 AM 45.3 °F 44.4 °F 97% 30.27 in 10.0 mi Calm Calm - N/A   Mostly Cloudy
5:54 AM 45.9 °F 44.6 °F 95% 30.27 in 10.0 mi Calm Calm - N/A   Overcast
6:14 AM 45.7 °F 44.6 °F 96% 30.28 in 10.0 mi Calm Calm - N/A   Mostly Cloudy
6:34 AM 46.4 °F 45.0 °F 95% 30.28 in 10.0 mi Calm Calm - N/A   Overcast
6:54 AM 46.4 °F 45.0 °F 95% 30.29 in 10.0 mi Calm Calm - N/A   Overcast
7:14 AM 46.9 °F 45.5 °F 95% 30.29 in 10.0 mi Calm Calm - N/A   Overcast
7:34 AM 47.5 °F 45.5 °F 93% 30.30 in 10.0 mi Calm Calm - N/A   Overcast
7:54 AM 47.8 °F 45.3 °F 91% 30.30 in 10.0 mi Calm Calm - N/A   Overcast
8:14 AM 48.4 °F 46.0 °F 92% 30.30 in 10.0 mi Calm Calm - N/A   Overcast
8:34 AM 48.6 °F 46.6 °F 93% 30.30 in 10.0 mi Calm Calm - N/A   Overcast
8:54 AM 49.1 °F 46.9 °F 92% 30.30 in 10.0 mi Calm Calm - N/A   Overcast
9:14 AM 49.5 °F 47.3 °F 92% 30.30 in 10.0 mi Calm Calm - N/A   Overcast
9:34 AM 50.0 °F 47.3 °F 90% 30.30 in 10.0 mi Calm Calm - N/A   Overcast
9:54 AM 51.3 °F 47.1 °F 86% 30.31 in 10.0 mi Calm Calm - N/A   Overcast
10:14 AM 53.8 °F 46.9 °F 78% 30.31 in 10.0 mi Calm Calm - N/A   Mostly Cloudy
10:34 AM 55.4 °F 46.9 °F 73% 30.31 in 10.0 mi Calm Calm - N/A   Mostly Cloudy
10:54 AM 56.3 °F 47.1 °F 71% 30.31 in 10.0 mi Calm Calm - N/A   Overcast
11:14 AM 57.4 °F 47.3 °F 69% 30.31 in 10.0 mi Calm Calm - N/A   Overcast
11:34 AM 59.0 °F 47.5 °F 66% 30.30 in 10.0 mi Calm Calm - N/A   Overcast
11:54 AM 60.3 °F 47.1 °F 62% 30.29 in 10.0 mi Calm Calm - N/A   Overcast
12:14 PM 64.0 °F 46.2 °F 52% 30.28 in 10.0 mi Calm Calm - N/A   Mostly Cloudy
12:34 PM 65.7 °F 46.6 °F 50% 30.28 in 10.0 mi SE 4.6 mph - N/A   Mostly Cloudy
12:54 PM 66.4 °F 46.2 °F 48% 30.27 in 10.0 mi SSE 4.6 mph - N/A   Scattered Clouds
1:14 PM 67.1 °F 44.6 °F 44% 30.26 in 10.0 mi WSW 4.6 mph - N/A   Scattered Clouds
1:34 PM 67.6 °F 45.5 °F 45% 30.26 in 10.0 mi WNW 4.6 mph - N/A   Scattered Clouds
1:54 PM 68.2 °F 45.5 °F 44% 30.25 in 10.0 mi WSW 6.9 mph - N/A   Overcast
2:14 PM 66.7 °F 45.9 °F 47% 30.24 in 10.0 mi Calm Calm - N/A   Overcast
2:34 PM 69.3 °F 46.0 °F 43% 30.23 in 10.0 mi NNW 4.6 mph - N/A   Mostly Cloudy
2:54 PM 69.8 °F 45.5 °F 42% 30.22 in 10.0 mi North 3.5 mph - N/A   Mostly Cloudy
3:14 PM 67.3 °F 44.8 °F 44% 30.22 in 10.0 mi NW 3.5 mph - N/A   Overcast
3:34 PM 66.9 °F 46.6 °F 48% 30.21 in 10.0 mi North 4.6 mph - N/A   Mostly Cloudy
3:54 PM 70.7 °F 42.6 °F 36% 30.20 in 10.0 mi Calm Calm - N/A   Scattered Clouds
4:14 PM 71.8 °F 43.0 °F 35% 30.19 in 10.0 mi NW 3.5 mph - N/A   Clear
4:34 PM 71.8 °F 40.1 °F 32% 30.19 in 10.0 mi NW 3.5 mph - N/A   Clear
4:54 PM 72.5 °F 39.9 °F 31% 30.18 in 10.0 mi NNW 3.5 mph - N/A   Clear
5:14 PM 72.0 °F 37.9 °F 29% 30.18 in 10.0 mi NW 3.5 mph - N/A   Clear
5:34 PM 72.1 °F 38.1 °F 29% 30.18 in 10.0 mi WNW 3.5 mph - N/A   Clear
5:54 PM 72.5 °F 34.9 °F 25% 30.18 in 10.0 mi West 5.8 mph - N/A   Clear
6:14 PM 72.1 °F 32.5 °F 23% 30.18 in 10.0 mi WSW 5.8 mph - N/A   Clear
6:34 PM 71.1 °F 32.2 °F 24% 30.18 in 10.0 mi West 4.6 mph - N/A   Clear
6:54 PM 68.9 °F 34.7 °F 28% 30.18 in 10.0 mi Calm Calm - N/A   Clear
7:14 PM 66.2 °F 38.5 °F 36% 30.18 in 10.0 mi Calm Calm - N/A   Clear
7:34 PM 63.3 °F 39.0 °F 41% 30.18 in 10.0 mi Calm Calm - N/A   Clear
7:54 PM 59.2 °F 41.2 °F 51% 30.19 in 10.0 mi Calm Calm - N/A   Clear
8:14 PM 58.6 °F 42.4 °F 55% 30.20 in 10.0 mi East 3.5 mph - N/A   Scattered Clouds
8:34 PM 56.8 °F 42.6 °F 59% 30.20 in 10.0 mi Calm Calm - N/A   Scattered Clouds
8:54 PM 57.0 °F 41.5 °F 56% 30.21 in 10.0 mi East 3.5 mph - N/A   Scattered Clouds
9:14 PM 58.1 °F 39.4 °F 50% 30.21 in 10.0 mi ESE 9.2 mph - N/A   Scattered Clouds
9:34 PM 56.7 °F 41.4 °F 57% 30.22 in 10.0 mi East 4.6 mph - N/A   Mostly Cloudy
9:54 PM 56.5 °F 40.8 °F 56% 30.22 in 10.0 mi East 3.5 mph - N/A   Mostly Cloudy
10:14 PM 55.6 °F 40.5 °F 57% 30.23 in 10.0 mi Calm Calm - N/A   Overcast
10:34 PM 54.9 °F 41.4 °F 60% 30.23 in 10.0 mi Calm Calm - N/A   Scattered Clouds
10:54 PM 54.7 °F 41.0 °F 60% 30.24 in 10.0 mi Calm Calm - N/A   Scattered Clouds
11:14 PM 54.0 °F 42.3 °F 65% 30.24 in 10.0 mi Calm Calm - N/A   Scattered Clouds
11:34 PM 52.5 °F 41.7 °F 67% 30.24 in 10.0 mi ESE 5.8 mph - N/A   Scattered Clouds
11:54 PM 51.8 °F 41.4 °F 68% 30.23 in 10.0 mi ENE 3.5 mph - N/A   Clear